This demonstration page uses our WeatherBlox Daily Observations layout. Learn more.

Left ArrowRight Arrow

39.01783, -85.05884

Hourly Observations for April 7, 2020

Temp ( °F °C ) Dew Point ( °F °C ) Humidity (%) Winds ( mph kmh ) Pressure ( in mb ) Visibility ( mi km ) Precip ( " mm )
12:52 am 00:52 Mostly Cloudy 58 14.4 50 10 75 75 S 6 9 29.98 1015 10 16 N/A
1:52 am 01:52 Mostly Cloudy 56 13.3 50 10 81 81 S 8 13 29.97 1015 10 16 N/A
2:52 am 02:52 Mostly Cloudy 59 15 50 10 72 72 S 7 11 29.95 1014 10 16 N/A
3:52 am 03:52 Clear 57 13.9 50 10 78 78 S 8 13 29.92 1013 10 16 N/A
4:52 am 04:52 Mostly Cloudy 56 13.3 50 10 81 81 S 9 15 29.92 1013 10 16 N/A
5:52 am 05:52 Mostly Clear 56 13.3 49 9.4 77 77 SSW 9 15 29.91 1013 10 16 N/A
6:52 am 06:52 Clear 55 12.8 49 9.4 80 80 S 8 13 29.91 1013 10 16 N/A
7:52 am 07:52 Partly Cloudy 57 13.9 50 10 78 78 SSW 8 13 29.91 1013 9 14 N/A
8:52 am 08:52 Mostly Cloudy 61 16.1 53 11.7 75 75 SSW 10 17 29.91 1013 10 16 N/A
9:52 am 09:52 Cloudy 63 17.2 53 11.7 70 70 SW 7 11 29.89 1012 10 16 N/A
10:52 am 10:52 Mostly Cloudy 67 19.4 55 12.8 66 66 SSW 10 17 29.89 1012 10 16 N/A
11:52 am 11:52 Mostly Cloudy 71 21.7 57 13.9 61 61 WSW 8 13 29.88 1012 10 16 N/A
12:52 pm 12:52 Mostly Cloudy 73 22.8 57 13.9 57 57 WSW 10 17 29.85 1011 10 16 N/A
1:52 pm 13:52 Mostly Cloudy 75 23.9 56 13.3 52 52 SW 14 22 29.83 1010 10 16 N/A
2:52 pm 14:52 Mostly Cloudy 76 24.4 57 13.9 52 52 WSW 12 19 29.80 1009 10 16 N/A
3:52 pm 15:52 Mostly Cloudy 77 25 57 13.9 50 50 SSW 14 22 29.76 1008 10 16 N/A
4:52 pm 16:52 Mostly Cloudy 77 25 57 13.9 50 50 WSW 12 19 29.74 1007 10 16 N/A
5:52 pm 17:52 Mostly Cloudy 78 25.6 56 13.3 47 47 SW 15 24 29.72 1007 10 16 N/A
6:52 pm 18:52 Partly Cloudy 77 25 55 12.8 47 47 SSW 14 22 29.72 1006 10 16 N/A
7:52 pm 19:52 Mostly Sunny 75 23.9 55 12.8 50 50 SSW 12 19 29.71 1006 10 16 N/A
8:52 pm 20:52 Mostly Clear 71 21.7 56 13.3 59 59 SW 8 13 29.71 1006 10 16 N/A
9:52 pm 21:52 Clear 71 21.7 57 13.9 61 61 SW 12 19 29.70 1006 10 16 N/A
10:52 pm 22:52 Clear 70 21.1 57 13.9 64 64 SSW 9 15 29.69 1005 10 16 N/A
11:52 pm 23:52 Mostly Clear 71 21.7 58 14.4 63 63 SW 15 24 29.66 1005 10 16 N/A

Powered by AerisWeather